Time,TemperatureF,DewpointF,PressureIn,WindDirection,WindDirectionDegrees,WindSpeedMPH,WindSpeedGustMPH,Humidity,HourlyPrecipIn,Conditions,Clouds,dailyrainin,SoftwareType,DateUTC
2013-06-23 00:00:00,65.1,63.3,30.17,SSE,150,6.0,6.0,94,0.00,,,0.00,Wunderground v.1.15,2013-06-23 04:00:00,
2013-06-23 00:10:00,65.1,63.3,30.17,SW,222,6.0,6.0,94,0.00,,,0.00,Wunderground v.1.15,2013-06-23 04:10:00,
2013-06-23 00:20:00,65.1,63.3,30.17,West,265,7.0,7.0,94,0.00,,,0.00,Wunderground v.1.15,2013-06-23 04:20:00,
2013-06-23 00:30:00,65.0,63.2,30.17,SW,229,7.0,37.0,94,0.00,,,0.00,Wunderground v.1.15,2013-06-23 04:30:00,
2013-06-23 00:40:00,65.0,63.2,30.17,SW,233,6.0,6.0,94,0.00,,,0.00,Wunderground v.1.15,2013-06-23 04:40:00,
2013-06-23 00:50:00,65.1,63.3,30.17,SSW,211,7.0,37.0,94,0.00,,,0.00,Wunderground v.1.15,2013-06-23 04:50:00,
2013-06-23 01:00:00,65.1,63.3,30.17,West,260,7.0,7.0,94,0.00,,,0.00,Wunderground v.1.15,2013-06-23 05:00:00,
2013-06-23 01:10:00,65.1,63.3,30.17,South,188,7.0,37.0,94,0.00,,,0.00,Wunderground v.1.15,2013-06-23 05:10:00,
2013-06-23 01:21:00,65.1,63.3,30.17,WSW,256,7.0,37.0,94,0.00,,,0.00,Wunderground v.1.15,2013-06-23 05:21:00,
2013-06-23 01:30:00,65.1,63.6,30.17,WSW,239,7.0,37.0,95,0.00,,,0.00,Wunderground v.1.15,2013-06-23 05:30:00,
2013-06-23 01:40:00,65.0,63.5,30.17,South,188,7.0,37.0,95,0.00,,,0.00,Wunderground v.1.15,2013-06-23 05:40:00,
2013-06-23 01:50:00,64.9,63.4,30.17,SSW,194,7.0,7.0,95,0.00,,,0.00,Wunderground v.1.15,2013-06-23 05:50:00,
2013-06-23 02:00:00,65.0,63.5,30.17,SSW,200,6.0,37.0,95,0.00,,,0.00,Wunderground v.1.15,2013-06-23 06:00:00,
2013-06-23 02:10:00,65.1,63.6,30.16,SW,220,6.0,37.0,95,0.00,,,0.00,Wunderground v.1.15,2013-06-23 06:10:00,
2013-06-23 02:20:00,65.2,63.7,30.16,West,259,6.0,6.0,95,0.00,,,0.00,Wunderground v.1.15,2013-06-23 06:20:00,
2013-06-23 02:30:00,65.1,63.6,30.16,SW,218,6.0,37.0,95,0.00,,,0.00,Wunderground v.1.15,2013-06-23 06:30:00,
2013-06-23 02:40:00,65.2,63.7,30.15,SSW,205,6.0,6.0,95,0.00,,,0.00,Wunderground v.1.15,2013-06-23 06:40:00,
2013-06-23 02:50:00,65.1,63.9,30.15,East,97,5.0,37.0,96,0.00,,,0.00,Wunderground v.1.15,2013-06-23 06:50:00,
2013-06-23 03:00:00,65.1,63.9,30.15,South,188,5.0,5.0,96,0.00,,,0.00,Wunderground v.1.15,2013-06-23 07:00:00,
2013-06-23 03:10:00,65.1,63.9,30.15,WSW,238,5.0,5.0,96,0.00,,,0.00,Wunderground v.1.15,2013-06-23 07:10:00,
2013-06-23 03:20:00,65.0,63.8,30.15,SSE,160,5.0,5.0,96,0.00,,,0.00,Wunderground v.1.15,2013-06-23 07:20:00,
2013-06-23 03:30:00,65.1,63.9,30.15,WSW,239,5.0,37.0,96,0.00,,,0.00,Wunderground v.1.15,2013-06-23 07:30:00,
2013-06-23 03:40:00,65.2,64.0,30.15,SW,226,6.0,37.0,96,0.00,,,0.00,Wunderground v.1.15,2013-06-23 07:40:00,
2013-06-23 03:50:00,65.2,64.0,30.15,SSW,201,6.0,6.0,96,0.00,,,0.00,Wunderground v.1.15,2013-06-23 07:50:00,
2013-06-23 04:00:00,65.2,64.0,30.14,West,278,5.0,5.0,96,0.00,,,0.00,Wunderground v.1.15,2013-06-23 08:00:00,
2013-06-23 04:10:00,65.1,63.9,30.15,West,263,5.0,5.0,96,0.00,,,0.00,Wunderground v.1.15,2013-06-23 08:10:00,
2013-06-23 04:20:00,65.1,63.9,30.15,SSW,208,5.0,37.0,96,0.00,,,0.00,Wunderground v.1.15,2013-06-23 08:20:00,
2013-06-23 04:30:00,65.1,63.9,30.15,NW,313,5.0,5.0,96,0.00,,,0.00,Wunderground v.1.15,2013-06-23 08:30:00,
2013-06-23 04:40:00,65.1,63.9,30.15,SW,215,6.0,6.0,96,0.00,,,0.00,Wunderground v.1.15,2013-06-23 08:40:00,
2013-06-23 04:50:00,65.1,63.9,30.15,West,267,5.0,5.0,96,0.00,,,0.00,Wunderground v.1.15,2013-06-23 08:50:00,
2013-06-23 05:00:00,65.2,64.0,30.15,SW,233,6.0,37.0,96,0.00,,,0.00,Wunderground v.1.15,2013-06-23 09:00:00,
2013-06-23 05:10:00,65.1,64.2,30.15,SW,217,5.0,5.0,97,0.00,,,0.00,Wunderground v.1.15,2013-06-23 09:10:00,
2013-06-23 05:20:00,65.2,64.3,30.15,WSW,243,5.0,37.0,97,0.00,,,0.00,Wunderground v.1.15,2013-06-23 09:20:00,
2013-06-23 05:30:00,65.1,64.2,30.15,West,260,6.0,37.0,97,0.00,,,0.00,Wunderground v.1.15,2013-06-23 09:30:00,
2013-06-23 05:40:00,65.1,64.2,30.15,SW,214,6.0,6.0,97,0.00,,,0.00,Wunderground v.1.15,2013-06-23 09:40:00,
2013-06-23 05:50:00,65.1,64.2,30.15,South,183,7.0,37.0,97,0.00,,,0.00,Wunderground v.1.15,2013-06-23 09:50:00,
2013-06-23 06:00:00,65.0,64.1,30.15,WSW,243,7.0,7.0,97,0.00,,,0.00,Wunderground v.1.15,2013-06-23 10:00:00,
2013-06-23 06:10:00,64.9,64.0,30.15,SSW,204,7.0,7.0,97,0.00,,,0.00,Wunderground v.1.15,2013-06-23 10:10:00,
2013-06-23 06:20:00,64.8,63.9,30.15,WSW,240,7.0,7.0,97,0.00,,,0.00,Wunderground v.1.15,2013-06-23 10:20:00,
2013-06-23 06:30:00,64.7,63.8,30.15,West,264,6.0,37.0,97,0.00,,,0.00,Wunderground v.1.15,2013-06-23 10:30:00,
2013-06-23 06:40:00,64.7,63.8,30.15,WSW,253,6.0,37.0,97,0.00,,,0.00,Wunderground v.1.15,2013-06-23 10:40:00,
2013-06-23 06:50:00,64.3,63.4,30.15,SW,218,8.0,37.0,97,0.00,,,0.00,Wunderground v.1.15,2013-06-23 10:50:00,
2013-06-23 07:00:00,64.1,63.2,30.15,WSW,255,7.0,7.0,97,0.00,,,0.00,Wunderground v.1.15,2013-06-23 11:00:00,
2013-06-23 07:10:00,64.2,63.3,30.16,SSW,211,7.0,7.0,97,0.00,,,0.00,Wunderground v.1.15,2013-06-23 11:10:00,
2013-06-23 07:20:00,64.5,63.3,30.16,WSW,252,7.0,37.0,96,0.00,,,0.00,Wunderground v.1.15,2013-06-23 11:20:00,
2013-06-23 07:30:00,64.8,63.6,30.16,SSW,204,7.0,7.0,96,0.00,,,0.00,Wunderground v.1.15,2013-06-23 11:30:00,
2013-06-23 07:40:00,65.1,63.6,30.17,WSW,238,7.0,7.0,95,0.00,,,0.00,Wunderground v.1.15,2013-06-23 11:40:00,
2013-06-23 07:50:00,65.2,63.7,30.17,SW,229,7.0,37.0,95,0.00,,,0.00,Wunderground v.1.15,2013-06-23 11:50:00,
2013-06-23 08:00:00,65.4,63.6,30.17,SW,228,8.0,37.0,94,0.00,,,0.00,Wunderground v.1.15,2013-06-23 12:00:00,
2013-06-23 08:10:00,65.5,63.4,30.17,SW,217,8.0,37.0,93,0.00,,,0.00,Wunderground v.1.15,2013-06-23 12:10:00,
2013-06-23 08:20:00,65.5,63.7,30.17,WSW,250,6.0,37.0,94,0.00,,,0.00,Wunderground v.1.15,2013-06-23 12:20:00,
2013-06-23 08:30:00,65.8,63.7,30.17,SSW,202,7.0,7.0,93,0.00,,,0.00,Wunderground v.1.15,2013-06-23 12:30:00,
2013-06-23 08:40:00,65.6,63.8,30.17,SW,232,7.0,37.0,94,0.00,,,0.00,Wunderground v.1.15,2013-06-23 12:40:00,
2013-06-23 08:50:00,66.2,64.1,30.17,WSW,238,8.0,8.0,93,0.00,,,0.00,Wunderground v.1.15,2013-06-23 12:50:00,
2013-06-23 09:00:00,66.8,64.7,30.16,SSW,195,8.0,37.0,93,0.00,,,0.00,Wunderground v.1.15,2013-06-23 13:00:00,
2013-06-23 09:10:00,67.4,65.0,30.16,West,270,8.0,37.0,92,0.00,,,0.00,Wunderground v.1.15,2013-06-23 13:10:00,
2013-06-23 09:20:00,67.7,64.7,30.16,SW,228,8.0,37.0,90,0.00,,,0.00,Wunderground v.1.15,2013-06-23 13:20:00,
2013-06-23 09:30:00,67.6,64.6,30.16,East,98,9.0,9.0,90,0.00,,,0.00,Wunderground v.1.15,2013-06-23 13:30:00,
2013-06-23 09:40:00,67.7,64.7,30.16,WSW,250,9.0,37.0,90,0.00,,,0.00,Wunderground v.1.15,2013-06-23 13:40:00,
2013-06-23 09:50:00,67.9,64.9,30.16,West,275,9.0,37.0,90,0.00,,,0.00,Wunderground v.1.15,2013-06-23 13:50:00,
2013-06-23 10:00:00,68.0,65.0,30.16,SSW,200,10.0,10.0,90,0.00,,,0.00,Wunderground v.1.15,2013-06-23 14:00:00,
2013-06-23 10:10:00,68.6,65.2,30.16,WSW,240,9.0,9.0,89,0.00,,,0.00,Wunderground v.1.15,2013-06-23 14:10:00,
2013-06-23 10:20:00,68.7,65.0,30.16,SSW,203,8.0,37.0,88,0.00,,,0.00,Wunderground v.1.15,2013-06-23 14:20:00,
2013-06-23 10:30:00,68.6,65.2,30.15,SW,217,10.0,10.0,89,0.00,,,0.00,Wunderground v.1.15,2013-06-23 14:30:00,
2013-06-23 10:40:00,69.0,65.3,30.15,SW,224,9.0,9.0,88,0.00,,,0.00,Wunderground v.1.15,2013-06-23 14:40:00,
2013-06-23 10:50:00,68.9,64.9,30.15,WSW,238,9.0,37.0,87,0.00,,,0.00,Wunderground v.1.15,2013-06-23 14:50:00,
2013-06-23 11:00:00,69.1,65.1,30.15,WSW,238,10.0,10.0,87,0.00,,,0.00,Wunderground v.1.15,2013-06-23 15:00:00,
2013-06-23 11:10:00,69.1,64.7,30.14,West,278,9.0,37.0,86,0.00,,,0.00,Wunderground v.1.15,2013-06-23 15:10:00,
2013-06-23 11:20:00,68.9,64.5,30.14,West,259,11.0,37.0,86,0.00,,,0.00,Wunderground v.1.15,2013-06-23 15:20:00,
2013-06-23 11:30:00,68.7,64.3,30.14,SSW,207,12.0,12.0,86,0.00,,,0.00,Wunderground v.1.15,2013-06-23 15:30:00,
2013-06-23 11:40:00,69.3,64.9,30.14,SSW,211,10.0,37.0,86,0.00,,,0.00,Wunderground v.1.15,2013-06-23 15:40:00,
2013-06-23 11:50:00,69.3,64.9,30.14,SSW,197,11.0,11.0,86,0.00,,,0.00,Wunderground v.1.15,2013-06-23 15:50:00,
2013-06-23 12:00:00,69.5,64.8,30.14,WSW,240,10.0,37.0,85,0.00,,,0.00,Wunderground v.1.15,2013-06-23 16:00:00,
2013-06-23 12:10:00,69.1,65.1,30.14,SW,225,11.0,37.0,87,0.00,,,0.00,Wunderground v.1.15,2013-06-23 16:10:00,
2013-06-23 12:20:00,69.5,65.1,30.13,WSW,243,9.0,37.0,86,0.00,,,0.00,Wunderground v.1.15,2013-06-23 16:20:00,
2013-06-23 12:30:00,69.9,65.2,30.13,SW,236,10.0,37.0,85,0.00,,,0.00,Wunderground v.1.15,2013-06-23 16:30:00,
2013-06-23 12:40:00,69.2,64.8,30.13,WSW,256,12.0,12.0,86,0.00,,,0.00,Wunderground v.1.15,2013-06-23 16:40:00,
2013-06-23 12:50:00,69.3,64.9,30.13,SSW,201,12.0,37.0,86,0.00,,,0.00,Wunderground v.1.15,2013-06-23 16:50:00,
2013-06-23 13:00:00,69.4,65.0,30.13,WSW,257,12.0,37.0,86,0.00,,,0.00,Wunderground v.1.15,2013-06-23 17:00:00,
2013-06-23 13:10:00,69.6,64.9,30.13,SW,226,11.0,37.0,85,0.00,,,0.00,Wunderground v.1.15,2013-06-23 17:10:00,
2013-06-23 13:20:00,69.3,64.9,30.12,SSW,193,12.0,12.0,86,0.00,,,0.00,Wunderground v.1.15,2013-06-23 17:20:00,
2013-06-23 13:30:00,70.0,65.3,30.12,SW,231,10.0,37.0,85,0.00,,,0.00,Wunderground v.1.15,2013-06-23 17:30:00,
2013-06-23 13:40:00,69.9,65.2,30.12,SW,231,11.0,37.0,85,0.00,,,0.00,Wunderground v.1.15,2013-06-23 17:40:00,
2013-06-23 13:50:00,69.8,65.1,30.12,North,356,12.0,37.0,85,0.00,,,0.00,Wunderground v.1.15,2013-06-23 17:50:00,
2013-06-23 14:00:00,69.8,65.4,30.11,WSW,250,11.0,37.0,86,0.00,,,0.00,Wunderground v.1.15,2013-06-23 18:00:00,
2013-06-23 14:10:00,70.0,65.3,30.11,SSW,212,11.0,37.0,85,0.00,,,0.00,Wunderground v.1.15,2013-06-23 18:10:00,
2013-06-23 14:20:00,69.7,65.0,30.11,SW,222,11.0,11.0,85,0.00,,,0.00,Wunderground v.1.15,2013-06-23 18:20:00,
2013-06-23 14:30:00,70.2,65.8,30.10,WSW,255,11.0,37.0,86,0.00,,,0.00,Wunderground v.1.15,2013-06-23 18:30:00,
2013-06-23 14:40:00,70.6,65.5,30.10,WSW,243,10.0,37.0,84,0.00,,,0.00,Wunderground v.1.15,2013-06-23 18:40:00,
2013-06-23 14:50:00,70.6,65.9,30.10,West,267,10.0,10.0,85,0.00,,,0.00,Wunderground v.1.15,2013-06-23 18:50:00,
2013-06-23 15:00:00,70.9,65.8,30.09,South,191,9.0,37.0,84,0.00,,,0.00,Wunderground v.1.15,2013-06-23 19:00:00,
2013-06-23 15:10:00,71.0,65.9,30.09,SSW,195,9.0,37.0,84,0.00,,,0.00,Wunderground v.1.15,2013-06-23 19:10:00,
2013-06-23 15:20:00,70.9,66.5,30.09,WSW,256,10.0,37.0,86,0.00,,,0.00,Wunderground v.1.15,2013-06-23 19:20:00,
2013-06-23 15:30:00,71.0,66.3,30.09,SSW,207,9.0,9.0,85,0.00,,,0.00,Wunderground v.1.15,2013-06-23 19:30:00,
2013-06-23 15:40:00,71.2,66.8,30.09,West,271,8.0,8.0,86,0.00,,,0.00,Wunderground v.1.15,2013-06-23 19:40:00,
2013-06-23 15:50:00,71.2,66.5,30.08,WSW,238,8.0,37.0,85,0.00,,,0.00,Wunderground v.1.15,2013-06-23 19:50:00,
2013-06-23 16:00:00,70.4,66.0,30.08,NW,314,11.0,11.0,86,0.00,,,0.00,Wunderground v.1.15,2013-06-23 20:00:00,
2013-06-23 16:10:00,70.3,66.2,30.07,SW,219,11.0,37.0,87,0.00,,,0.00,Wunderground v.1.15,2013-06-23 20:10:00,
2013-06-23 16:20:00,70.0,66.0,30.08,SW,228,13.0,37.0,87,0.00,,,0.00,Wunderground v.1.15,2013-06-23 20:20:00,
2013-06-23 16:30:00,70.3,65.9,30.07,SW,222,11.0,37.0,86,0.00,,,0.00,Wunderground v.1.15,2013-06-23 20:30:00,
2013-06-23 16:40:00,70.6,66.2,30.07,SSW,211,10.0,37.0,86,0.00,,,0.00,Wunderground v.1.15,2013-06-23 20:40:00,
2013-06-23 16:50:00,70.7,66.3,30.06,WSW,238,10.0,37.0,86,0.00,,,0.00,Wunderground v.1.15,2013-06-23 20:50:00,
2013-06-23 17:00:00,70.8,66.1,30.06,SW,236,9.0,9.0,85,0.00,,,0.00,Wunderground v.1.15,2013-06-23 21:00:00,
2013-06-23 17:10:00,70.4,65.7,30.06,SSW,204,11.0,11.0,85,0.00,,,0.00,Wunderground v.1.15,2013-06-23 21:10:00,
2013-06-23 17:20:00,70.2,65.5,30.06,SSW,197,11.0,11.0,85,0.00,,,0.00,Wunderground v.1.15,2013-06-23 21:20:00,
2013-06-23 17:30:00,70.1,65.4,30.06,West,281,11.0,37.0,85,0.00,,,0.00,Wunderground v.1.15,2013-06-23 21:30:00,
2013-06-23 17:40:00,69.8,65.4,30.06,West,264,12.0,12.0,86,0.00,,,0.00,Wunderground v.1.15,2013-06-23 21:40:00,
2013-06-23 17:50:00,69.9,65.5,30.06,WSW,257,11.0,11.0,86,0.00,,,0.00,Wunderground v.1.15,2013-06-23 21:50:00,
2013-06-23 18:00:00,69.7,65.3,30.05,West,276,11.0,11.0,86,0.00,,,0.00,Wunderground v.1.15,2013-06-23 22:00:00,
2013-06-23 18:10:00,69.8,65.4,30.05,South,188,10.0,37.0,86,0.00,,,0.00,Wunderground v.1.15,2013-06-23 22:10:00,
2013-06-23 18:20:00,69.4,65.4,30.05,SW,220,11.0,37.0,87,0.00,,,0.00,Wunderground v.1.15,2013-06-23 22:20:00,
2013-06-23 18:30:00,69.3,65.6,30.05,SW,228,11.0,11.0,88,0.00,,,0.00,Wunderground v.1.15,2013-06-23 22:30:00,
2013-06-23 18:40:00,69.0,65.6,30.05,SSE,156,11.0,11.0,89,0.00,,,0.00,Wunderground v.1.15,2013-06-23 22:40:00,
2013-06-23 18:50:00,68.8,65.7,30.05,WSW,246,12.0,12.0,90,0.00,,,0.00,Wunderground v.1.15,2013-06-23 22:50:00,
2013-06-23 19:00:00,68.5,65.4,30.05,WSW,245,12.0,37.0,90,0.00,,,0.00,Wunderground v.1.15,2013-06-23 23:00:00,
2013-06-23 19:10:00,68.4,65.7,30.06,WSW,238,12.0,12.0,91,0.00,,,0.00,Wunderground v.1.15,2013-06-23 23:10:00,
2013-06-23 19:20:00,68.0,65.6,30.06,SW,229,11.0,37.0,92,0.00,,,0.00,Wunderground v.1.15,2013-06-23 23:20:00,
2013-06-23 19:30:00,67.7,66.2,30.06,SSW,208,11.0,37.0,95,0.00,,,0.00,Wunderground v.1.15,2013-06-23 23:30:00,
2013-06-23 19:40:00,67.5,66.3,30.06,WSW,255,11.0,37.0,96,0.00,,,0.00,Wunderground v.1.15,2013-06-23 23:40:00,
2013-06-23 19:50:00,67.2,66.0,30.06,WSW,255,10.0,10.0,96,0.00,,,0.00,Wunderground v.1.15,2013-06-23 23:50:00,
2013-06-23 20:00:00,67.1,65.9,30.06,SSW,200,10.0,10.0,96,0.00,,,0.00,Wunderground v.1.15,2013-06-24 00:00:00,
2013-06-23 20:10:00,67.0,65.8,30.06,SW,228,10.0,37.0,96,0.00,,,0.00,Wunderground v.1.15,2013-06-24 00:10:00,
2013-06-23 20:20:00,67.1,65.9,30.06,SW,226,11.0,37.0,96,0.00,,,0.00,Wunderground v.1.15,2013-06-24 00:20:00,
2013-06-23 20:30:00,67.1,65.9,30.06,ESE,122,11.0,37.0,96,0.00,,,0.00,Wunderground v.1.15,2013-06-24 00:30:00,
2013-06-23 20:40:00,67.2,66.0,30.06,SSW,210,11.0,11.0,96,0.00,,,0.00,Wunderground v.1.15,2013-06-24 00:40:00,
2013-06-23 20:50:00,67.3,66.1,30.07,SSE,151,9.0,9.0,96,0.00,,,0.00,Wunderground v.1.15,2013-06-24 00:50:00,
2013-06-23 21:00:00,67.4,66.2,30.06,South,188,9.0,9.0,96,0.00,,,0.00,Wunderground v.1.15,2013-06-24 01:00:00,
2013-06-23 21:10:00,67.4,66.5,30.06,West,276,10.0,10.0,97,0.00,,,0.00,Wunderground v.1.15,2013-06-24 01:10:00,
2013-06-23 21:20:00,67.5,66.6,30.07,WSW,253,10.0,37.0,97,0.00,,,0.00,Wunderground v.1.15,2013-06-24 01:20:00,
2013-06-23 21:30:00,67.7,66.8,30.07,SW,229,9.0,37.0,97,0.00,,,0.00,Wunderground v.1.15,2013-06-24 01:30:00,
2013-06-23 21:40:00,67.8,66.9,30.08,West,262,8.0,37.0,97,0.00,,,0.00,Wunderground v.1.15,2013-06-24 01:40:00,
2013-06-23 21:50:00,68.0,67.1,30.08,West,263,9.0,37.0,97,0.00,,,0.00,Wunderground v.1.15,2013-06-24 01:50:00,
2013-06-23 22:00:00,68.2,67.6,30.08,WSW,240,9.0,37.0,98,0.00,,,0.00,Wunderground v.1.15,2013-06-24 02:00:00,
2013-06-23 22:10:00,68.3,67.7,30.08,WSW,257,9.0,37.0,98,0.00,,,0.00,Wunderground v.1.15,2013-06-24 02:10:00,
2013-06-23 22:20:00,68.3,67.7,30.08,West,264,9.0,9.0,98,0.00,,,0.00,Wunderground v.1.15,2013-06-24 02:20:00,
2013-06-23 22:30:00,68.2,67.6,30.07,SW,224,8.0,8.0,98,0.00,,,0.00,Wunderground v.1.15,2013-06-24 02:30:00,
2013-06-23 22:40:00,68.2,67.6,30.07,WSW,245,8.0,37.0,98,0.00,,,0.00,Wunderground v.1.15,2013-06-24 02:40:00,
2013-06-23 22:51:00,68.1,67.5,30.07,WNW,283,8.0,37.0,98,0.00,,,0.00,Wunderground v.1.15,2013-06-24 02:51:00,
2013-06-23 23:01:00,68.1,67.5,30.07,SW,236,7.0,37.0,98,0.00,,,0.00,Wunderground v.1.15,2013-06-24 03:01:00,
2013-06-23 23:10:00,68.3,68.0,30.06,SSW,206,8.0,8.0,99,0.00,,,0.00,Wunderground v.1.15,2013-06-24 03:10:00,
2013-06-23 23:20:00,68.3,68.0,30.06,SSW,212,6.0,37.0,99,0.00,,,0.00,Wunderground v.1.15,2013-06-24 03:20:00,
2013-06-23 23:30:00,68.0,67.7,30.06,SW,229,7.0,7.0,99,0.00,,,0.00,Wunderground v.1.15,2013-06-24 03:30:00,
2013-06-23 23:40:00,67.9,67.6,30.06,WSW,249,8.0,8.0,99,0.00,,,0.00,Wunderground v.1.15,2013-06-24 03:40:00,
2013-06-23 23:50:00,67.9,67.6,30.05,SW,224,8.0,8.0,99,0.00,,,0.00,Wunderground v.1.15,2013-06-24 03:50:00,